Weather in Megara

Greece     37°59′44″N   23°20′35″E
temp.,
°C
wind,
m/s
gust,
m/s
humid.,
%
clouds,
%
prec.,
mm/h
press.,
hPa
HPBL,
m
5 august, thu
thu500:00+30ne11320 0.0 101311
03:00+29nw34360 0.0 101245
06:00+28nnw45430 0.0 101267
09:00+33nw45290 0.0 1011252
12:00+37wnw23210 0.0 10111014
15:00+38s34200 0.0 10091301
18:00+37sw26230 0.0 1008722
21:00+31wnw23380 0.0 100833
6 august, fri
fri600:00+29nw34445 0.0 100753
03:00+28nw47420 0.0 1006109
06:00+27nw4745100 0.0 1004138
09:00+29nw6941100 0.0 1004362
12:00+33wnw6931100 0.0 1004662
15:00+35wnw81127100 0.0 1002985
18:00+31wnw1216318 0.0 1001771
21:00+27nw1117410 0.0 1002643
7 august, sat
sat700:00+26wnw915570 0.0 1004525
03:00+27nw915510 0.0 1004776
06:00+23nw45780 0.0 1006189
09:00+28n37450 0.0 1008972
12:00+32n67300 0.0 10091427
15:00+34nne66280 0.0 10081549
18:00+33ese34310 0.0 10091513
21:00+27ssw22500 0.0 101025
8 august, sun
sun800:00+26sse01590 0.0 101213
03:00+26nnw33420 0.0 101241
06:00+25nnw22360 0.0 101344
09:00+29nw11290 0.0 1014322
12:00+33w13270 0.0 10141379
15:00+35n25280 0.0 10131763
18:00+34e34260 0.0 10131329
21:00+28s11480 0.0 101412
9 august, mon
mon900:00+27nw33450 0.0 101527
03:00+26nnw34510 0.0 101569
06:00+26nnw33480 0.0 101448
09:00+30nw33340 0.0 1015302
12:00+34w23280 0.0 1014996
15:00+36sw23240 0.0 10131048
18:00+33sse33324 0.0 1013433
21:00+28e225022 0.0 101343